Tracking 30918 objects as of 2-Jul-2025
HD Live streaming from Space Station
objects crossing your sky now

SL-16 DEB

Track SL-16 DEB now!
10-day predictions


NORAD ID: 22400
Int'l Code: 1992-093CR
Perigee: 827.5 km
Apogee: 1,053.8 km
Inclination: 71.2 °
Period: 103.7 minutes
Semi major axis: 7311 km
RCS: 0.0099 m2 (small)
Launch date: December 25, 1992
Source: Commonwealth of Independent States (former USSR) (CIS)
Launch site: TYURATAM MISSILE AND SPACE COMPLEX (TTMTR)

Note: This is SATELLITE DEBRIS
Your satellite tracking list
Your tracking list is empty




NASA's NSSDC Master Catalog

Two Line Element Set (TLE):
1 22400U 92093CR  25182.90749512  .00000229  00000-0  20471-3 0  9996
2 22400  71.2387 157.9377 0154762  78.7010 310.7146 13.88617917644406
Source of the keplerian elements: AFSPC